Terminal Aerodrome Forecast
Issued by NWS

Home | Current Version | Previous Version | Text Only | Print | Product List | Glossary On
Versions: 1 2 3 4 5 6 7 8 9 10 11 12 13 14 15 16 17 18 19 20 21 22 23 24 25 26 27 28 29 30 31 32 33 34 35 36 37 38 39 40 41 42 43 44 45 46 47 48 49 50
000
FTUS43 KMKX 221639 AAB
TAFUES
TAF AMD
KUES 221639Z 2217/2312 11010KT 4SM BR BKN010 OVC040
     FM222000 11010KT 6SM -RA OVC025
     FM222200 11010G17KT 3SM -RA OVC025
     FM230100 11011G19KT 2SM -RA OVC008
     FM230600 10010G18KT 1SM RA OVC003=

USA.gov is the U.S. government's official web portal to all federal, state and local government web resources and services.